Date_and_time,latitude,longitude,wind_speed,RelWindDirFrom,WindDirFrom,air_pressure,air_temperature,relative_humidity,Temp,platform_speed_wrt_ground,air_pressure_at_mean_sea_level,platform_orientation
2019-12-17 00:00,50.63045,-96.9807633333333,5.1,7.2,261,986.48,-11.8,88,0.49,0.0,1015.62,360.0
2019-12-17 00:00,50.63045,-96.9807633333333,4.8,4.9,247,986.51,-11.7,88,0.49,0.0,1015.65,90.0
2019-12-17 00:10,50.6304533333333,-96.9807633333333,5.0,8.9,267,986.57,-11.6,88,0.49,0.0,1015.69,90.0
2019-12-17 00:20,50.630455,-96.9807633333333,4.6,6.9,277,986.66,-11.5,88,0.49,0.0,1015.78,90.0
2019-12-17 00:30,50.6304583333333,-96.98076,4.3,6.4,284,986.70,-11.4,88,0.49,0.0,1015.81,90.0
2019-12-17 00:40,50.6304583333333,-96.98076,4.8,7.7,288,986.80,-11.2,88,0.49,0.0,1015.90,90.0
2019-12-17 00:50,50.6304583333333,-96.9807616666667,5.6,8.6,294,986.93,-10.8,86,0.49,0.0,1016.02,90.0
2019-12-17 01:00,50.6304466666667,-96.980755,5.2,8.2,315,986.90,-10.6,86,0.50,0.0,1015.97,90.0
2019-12-17 01:10,50.6304533333333,-96.980755,5.5,7.9,310,986.98,-10.5,85,0.50,0.0,1016.04,90.0
2019-12-17 01:20,50.630455,-96.98076,6.6,10.1,315,987.06,-10.5,85,0.49,0.0,1016.11,90.0
2019-12-17 01:30,50.630455,-96.980765,6.9,11.1,305,987.30,-10.5,84,0.50,0.0,1016.36,90.0
2019-12-17 01:40,50.6304533333333,-96.9807683333333,7.5,10.7,326,987.35,-10.6,84,0.50,0.0,1016.41,90.0
2019-12-17 01:50,50.630455,-96.9807666666667,8.3,12.0,327,987.49,-10.8,84,0.50,0.0,1016.55,90.0
2019-12-17 02:00,50.6304566666667,-96.98077,9.5,14.0,337,987.65,-10.9,83,0.52,0.0,1016.72,90.0
2019-12-17 02:10,50.6304566666667,-96.9807666666667,9.9,14.9,344,987.73,-11.1,82,0.52,0.0,1016.80,90.0
2019-12-17 02:20,50.6304566666667,-96.980765,8.1,13.7,345,987.91,-11.3,81,0.52,0.0,1017.00,90.0
2019-12-17 02:30,50.6304583333333,-96.9807633333333,8.9,12.9,334,988.18,-11.5,80,0.52,0.0,1017.27,90.0
2019-12-17 02:40,50.6304633333333,-96.9807683333333,8.1,11.7,329,988.32,-11.6,79,0.52,0.0,1017.41,90.0
2019-12-17 02:50,50.630455,-96.98076,8.6,12.8,333,988.38,-11.7,78,0.52,0.0,1017.46,90.0
2019-12-17 03:00,50.630455,-96.980765,7.4,10.7,330,988.56,-11.8,78,0.52,0.0,1017.64,90.0
2019-12-17 03:10,50.630435,-96.98076,7.0,9.7,329,988.55,-11.9,78,0.52,0.0,1017.64,90.0
2019-12-17 03:20,50.6304433333333,-96.9807533333333,8.0,12.9,332,988.62,-12.2,77,0.52,0.0,1017.73,90.0
2019-12-17 03:30,50.63044,-96.98074,9.4,14.4,329,988.69,-12.2,77,0.52,0.0,1017.81,90.0
2019-12-17 03:40,50.6304083333333,-96.98075,9.7,14.2,329,988.83,-12.3,77,0.51,0.0,1017.96,90.0
2019-12-17 03:50,50.6304733333333,-96.9808066666667,12.0,17.0,348,989.01,-12.3,78,0.52,0.0,1018.17,90.0
2019-12-17 04:00,50.630445,-96.98076,15.2,19.5,349,989.13,-12.9,72,0.52,0.0,1018.33,360.0
2019-12-17 04:10,50.6304433333333,-96.9807616666667,12.1,18.4,337,989.41,-13.3,68,0.52,0.0,1018.65,360.0
2019-12-17 04:20,50.6304433333333,-96.980765,10.1,14.5,323,989.58,-13.5,66,0.52,0.0,1018.84,360.0
2019-12-17 04:30,50.6304283333333,-96.9807783333333,8.9,13.7,327,989.76,-13.7,66,0.52,0.0,1019.05,360.0
2019-12-17 04:40,50.63044,-96.9807683333333,13.1,18.5,336,989.78,-14.1,63,0.52,0.0,1019.10,360.0
2019-12-17 04:50,50.630445,-96.9807633333333,10.3,15.7,331,990.12,-14.7,61,0.53,0.0,1019.49,360.0
2019-12-17 05:00,50.6304466666667,-96.98076,9.2,14.5,336,990.42,-15.1,62,0.53,0.0,1019.83,131.7
2019-12-17 05:10,50.630445,-96.9807616666667,11.5,16.3,345,990.63,-15.6,62,0.53,0.0,1020.09,131.7
2019-12-17 05:20,50.630445,-96.98076,9.6,13.5,344,990.84,-15.8,62,0.53,0.0,1020.32,131.7
2019-12-17 05:30,50.6304466666667,-96.9807583333333,9.2,14.1,341,991.01,-16.1,62,0.52,0.0,1020.51,131.7
2019-12-17 05:40,50.6304483333333,-96.98076,8.6,13.6,344,991.12,-16.4,61,0.52,0.0,1020.65,131.7
2019-12-17 05:50,50.63048,-96.9807966666667,7.8,10.9,346,991.17,-16.7,61,0.52,0.0,1020.75,131.7
2019-12-17 06:00,50.6304516666667,-96.9807566666667,8.5,14.9,338,991.21,-17.0,61,0.51,0.0,1020.83,90.0
2019-12-17 06:10,50.630445,-96.980815,10.2,13.9,342,991.34,-17.1,59,0.51,0.0,1020.98,90.0
2019-12-17 06:20,50.63045,-96.9807533333333,10.1,14.1,345,991.46,-17.3,58,0.52,0.0,1021.13,90.0
2019-12-17 06:30,50.6304483333333,-96.9807516666667,8.3,12.1,345,991.59,-17.5,58,0.52,0.0,1021.30,90.0
2019-12-17 06:40,50.63046,-96.980785,6.5,8.5,340,991.69,-17.8,59,0.52,0.0,1021.45,90.0
2019-12-17 06:50,50.6304583333333,-96.9807733333333,5.7,7.4,338,991.73,-18.1,60,0.53,0.0,1021.54,90.0
2019-12-17 07:00,50.6304583333333,-96.98077,5.6,8.2,331,991.86,-18.4,62,0.53,0.0,1021.72,360.0
2019-12-17 07:10,50.6304583333333,-96.9807683333333,5.5,7.0,326,991.95,-18.7,63,0.53,0.0,1021.84,360.0
2019-12-17 07:20,50.6304566666667,-96.9807683333333,5.6,8.1,325,992.01,-18.9,64,0.52,0.0,1021.94,360.0
2019-12-17 07:30,50.6304583333333,-96.9807683333333,6.5,9.1,331,992.12,-19.0,63,0.53,0.0,1022.07,360.0
2019-12-17 07:40,50.63046,-96.98077,7.1,9.3,333,992.23,-19.1,62,0.53,0.0,1022.21,360.0
2019-12-17 07:50,50.6304866666667,-96.980785,6.2,9.1,329,992.43,-19.4,62,0.52,0.0,1022.45,360.0
2019-12-17 08:00,50.63047,-96.9807666666667,5.9,8.5,332,992.69,-19.5,61,0.52,0.0,1022.73,360.0
2019-12-17 08:10,50.6304683333333,-96.9807666666667,5.3,7.0,330,992.96,-19.8,62,0.52,0.0,1023.03,360.0
2019-12-17 08:20,50.630465,-96.980765,5.2,6.7,331,993.12,-20.0,62,0.51,0.0,1023.23,360.0
2019-12-17 08:30,50.6304616666667,-96.98077,4.7,6.5,332,993.31,-20.2,63,0.51,0.0,1023.46,360.0
2019-12-17 08:40,50.6304916666667,-96.9808066666667,4.1,5.3,311,993.53,-20.4,63,0.52,0.0,1023.71,360.0
2019-12-17 08:50,50.6304733333333,-96.9807783333333,4.4,5.5,307,993.73,-20.5,64,0.52,0.0,1023.93,360.0
2019-12-17 09:00,50.6304666666667,-96.9807766666667,4.2,6.3,302,993.93,-20.7,65,0.51,0.0,1024.17,327.5
2019-12-17 09:10,50.6304666666667,-96.980775,5.1,7.0,304,994.02,-20.8,65,0.51,0.0,1024.29,327.5
2019-12-17 09:20,50.6304633333333,-96.980775,5.1,7.4,306,994.10,-20.9,66,0.50,0.0,1024.38,327.5
2019-12-17 09:30,50.6304633333333,-96.9807716666667,5.2,7.1,299,994.12,-21.1,66,0.50,0.0,1024.42,327.5
2019-12-17 09:40,50.6304616666667,-96.98077,4.9,6.8,302,994.17,-21.2,67,0.51,0.0,1024.49,327.5
2019-12-17 09:50,50.6304616666667,-96.98077,4.8,8.3,302,994.27,-21.4,67,0.49,0.0,1024.61,327.5
2019-12-17 10:00,50.6304583333333,-96.98075,5.2,6.9,303,994.32,-21.5,67,0.49,0.0,1024.68,90.0
2019-12-17 10:10,50.6304516666667,-96.9807466666667,5.5,7.5,307,994.26,-21.5,66,0.48,0.0,1024.65,90.0
2019-12-17 10:20,50.6304866666667,-96.980805,5.8,8.1,313,994.29,-21.7,66,0.49,0.0,1024.70,90.0
2019-12-17 10:30,50.630465,-96.9807616666667,5.0,6.8,306,994.40,-21.9,67,0.49,0.0,1024.83,90.0
2019-12-17 10:40,50.6304583333333,-96.9807616666667,5.8,8.2,310,994.47,-22.0,67,0.49,0.0,1024.91,90.0
2019-12-17 10:50,50.6304566666667,-96.9807633333333,6.9,9.7,312,994.51,-22.1,66,0.48,0.0,1024.98,90.0
2019-12-17 11:00,50.6304583333333,-96.9808,8.0,10.9,318,994.54,-22.2,67,0.48,0.0,1025.02,230.9
2019-12-17 11:10,50.630455,-96.9807666666667,9.0,12.8,330,994.57,-22.2,66,0.48,0.0,1025.06,230.9
2019-12-17 11:20,50.630455,-96.9807616666667,8.5,12.8,332,994.71,-22.3,67,0.48,0.0,1025.22,230.9
2019-12-17 11:30,50.6304566666667,-96.9807633333333,8.6,12.5,324,994.83,-22.4,68,0.48,0.0,1025.36,230.9
2019-12-17 11:40,50.6304583333333,-96.98076,8.5,12.6,322,994.97,-22.5,68,0.48,0.0,1025.52,230.9
2019-12-17 11:50,50.6304583333333,-96.98076,8.8,13.0,324,995.08,-22.6,68,0.47,0.0,1025.64,230.9
2019-12-17 12:00,50.6304416666667,-96.98077,8.1,12.9,320,995.20,-22.8,68,0.46,0.0,1025.79,360.0
2019-12-17 12:10,50.6304516666667,-96.9807666666667,7.1,9.7,320,995.38,-23.0,69,0.47,0.0,1025.99,360.0
2019-12-17 12:20,50.6304516666667,-96.9807683333333,6.3,8.7,320,995.49,-23.2,71,0.48,0.0,1026.12,360.0
2019-12-17 12:30,50.6304533333333,-96.98077,7.2,10.5,320,995.62,-23.3,71,0.48,0.0,1026.27,360.0
2019-12-17 12:40,50.6304516666667,-96.9807683333333,6.8,10.4,324,995.73,-23.4,71,0.48,0.0,1026.40,360.0
2019-12-17 12:50,50.6304633333333,-96.9807683333333,5.9,8.6,313,995.82,-23.7,71,0.48,0.0,1026.52,360.0
2019-12-17 13:00,50.6304716666667,-96.9807633333333,6.4,9.0,314,995.91,-23.9,70,0.47,0.0,1026.63,356.8
2019-12-17 13:10,50.63043,-96.9807733333333,6.2,9.6,319,996.07,-24.0,71,0.47,0.0,1026.81,356.8
2019-12-17 13:20,50.6304316666667,-96.9807633333333,6.0,7.9,320,996.19,-24.3,71,0.45,0.0,1026.95,356.8
2019-12-17 13:30,50.6304383333333,-96.980765,7.6,11.3,322,996.28,-24.4,72,0.44,0.0,1027.06,356.8
2019-12-17 13:40,50.63044,-96.9807583333333,8.6,12.0,325,996.44,-24.4,71,0.43,0.0,1027.22,356.8
2019-12-17 13:50,50.63044,-96.9807616666667,8.2,11.0,328,996.58,-24.3,70,0.42,0.0,1027.38,356.8
2019-12-17 14:00,50.63044,-96.9807616666667,7.9,11.3,326,996.73,-24.3,70,0.42,0.0,1027.55,121.3
2019-12-17 14:10,50.63044,-96.98076,7.7,11.3,323,996.90,-24.4,70,0.42,0.0,1027.73,121.3
2019-12-17 14:20,50.63044,-96.9807616666667,7.8,11.3,323,997.04,-24.4,70,0.42,0.0,1027.89,121.3
2019-12-17 14:30,50.6304716666667,-96.9807933333333,9.0,12.8,324,996.99,-24.4,70,0.42,0.0,1027.84,121.3
2019-12-17 14:40,50.6304333333333,-96.9807416666667,7.2,10.9,321,997.14,-24.4,71,0.43,0.0,1028.02,121.3
2019-12-17 14:50,50.630445,-96.9807766666667,7.7,10.9,324,997.16,-24.4,71,0.44,0.0,1028.05,121.3
2019-12-17 15:00,50.63044,-96.9807683333333,7.1,10.4,321,997.27,-24.3,70,0.44,0.0,1028.17,90.0
2019-12-17 15:10,50.6304383333333,-96.980765,6.9,10.3,310,997.43,-24.2,70,0.45,0.0,1028.35,90.0
2019-12-17 15:20,50.63044,-96.9807633333333,7.0,10.3,307,997.61,-24.2,69,0.45,0.0,1028.54,90.0
2019-12-17 15:30,50.63044,-96.980765,7.0,9.8,316,997.69,-24.2,68,0.44,0.0,1028.62,90.0
2019-12-17 15:40,50.63044,-96.9807616666667,6.4,10.2,315,997.87,-24.2,68,0.44,0.0,1028.79,90.0
2019-12-17 15:50,50.6304383333333,-96.9807616666667,6.5,9.4,314,998.05,-24.0,68,0.42,0.0,1028.97,90.0
2019-12-17 16:00,50.6304283333333,-96.9807833333333,6.5,9.2,323,998.07,-23.8,67,0.42,0.0,1028.98,360.0
2019-12-17 16:10,50.6304333333333,-96.980775,5.9,8.6,325,998.19,-23.6,66,0.41,0.0,1029.09,360.0
2019-12-17 16:20,50.6304383333333,-96.98077,6.6,10.4,325,998.27,-23.4,66,0.39,0.0,1029.16,360.0
2019-12-17 16:30,50.6304483333333,-96.98078,8.1,10.6,322,998.40,-23.4,65,0.38,0.0,1029.30,360.0
2019-12-17 16:40,50.6304516666667,-96.9807733333333,8.4,12.7,324,998.49,-23.2,65,0.37,0.0,1029.39,360.0
2019-12-17 16:50,50.6304483333333,-96.9807666666667,8.3,12.2,328,998.46,-23.0,64,0.37,0.0,1029.34,360.0
2019-12-17 17:00,50.6304483333333,-96.9807466666667,7.4,10.7,325,998.45,-22.9,63,0.36,0.0,1029.30,60.8
2019-12-17 17:10,50.63045,-96.9807616666667,7.6,10.6,319,998.39,-22.8,63,0.37,0.0,1029.24,60.8
2019-12-17 17:20,50.6304483333333,-96.980765,7.5,10.6,320,998.34,-22.6,63,0.37,0.0,1029.18,60.8
2019-12-17 17:30,50.63046,-96.9807833333333,6.0,9.4,319,998.27,-22.5,63,0.38,0.0,1029.09,60.8
2019-12-17 17:40,50.63045,-96.9807783333333,6.8,10.4,322,998.38,-22.4,62,0.38,0.0,1029.19,60.8
2019-12-17 17:50,50.6304516666667,-96.9807716666667,6.2,8.9,301,998.53,-22.4,62,0.38,0.0,1029.33,60.8
2019-12-17 18:00,50.63042,-96.9807916666667,7.1,10.0,306,998.39,-22.2,61,0.38,0.0,1029.16,216.6
2019-12-17 18:10,50.6304516666667,-96.9807783333333,6.3,10.6,301,998.37,-22.2,60,0.38,0.0,1029.12,216.6
2019-12-17 18:20,50.6304416666667,-96.9807766666667,5.8,7.7,293,998.47,-22.1,59,0.39,0.0,1029.22,216.6
2019-12-17 18:30,50.63044,-96.9807733333333,5.3,8.3,293,998.55,-21.8,58,0.40,0.0,1029.28,216.6
2019-12-17 18:40,50.6304416666667,-96.98077,4.8,8.1,301,998.52,-21.6,58,0.40,0.0,1029.23,216.6
2019-12-17 18:50,50.6304416666667,-96.9807683333333,5.7,8.3,306,998.54,-21.7,57,0.40,0.0,1029.24,216.6
2019-12-17 19:00,50.6304433333333,-96.9807683333333,6.3,9.6,301,998.63,-21.6,57,0.39,0.0,1029.33,41.2
2019-12-17 19:10,50.630445,-96.9807683333333,5.0,7.8,282,998.80,-21.4,56,0.38,0.0,1029.47,41.2
2019-12-17 19:20,50.6304466666667,-96.9807683333333,4.6,7.1,296,998.78,-21.3,55,0.37,0.0,1029.43,41.2
2019-12-17 19:30,50.6304466666667,-96.98077,4.1,6.5,291,998.72,-21.2,55,0.37,0.0,1029.37,41.2
2019-12-17 19:40,50.630445,-96.98077,6.6,8.4,270,998.80,-21.5,55,0.37,0.0,1029.47,41.2
2019-12-17 19:50,50.630445,-96.98077,6.2,8.5,281,998.79,-21.5,55,0.37,0.0,1029.45,41.2
2019-12-17 20:00,50.630435,-96.9807666666667,5.1,8.0,282,998.56,-21.5,55,0.37,0.0,1029.21,229.4
2019-12-17 20:10,50.6304516666667,-96.9807716666667,5.4,7.1,287,998.48,-21.5,54,0.39,0.0,1029.12,229.4
2019-12-17 20:20,50.6304466666667,-96.9807683333333,4.6,6.4,303,998.50,-21.4,54,0.39,0.0,1029.11,229.4
2019-12-17 20:30,50.630445,-96.9807666666667,5.2,7.0,265,998.71,-21.4,53,0.39,0.0,1029.32,229.4
2019-12-17 20:40,50.630445,-96.9807683333333,4.9,7.0,264,998.65,-21.5,53,0.39,0.0,1029.27,229.4
2019-12-17 20:50,50.630445,-96.9807716666667,4.5,8.3,261,998.86,-21.4,53,0.40,0.0,1029.48,229.4
2019-12-17 21:00,50.630445,-96.9807716666667,5.1,7.7,261,998.95,-21.4,53,0.40,0.0,1029.56,37.7
2019-12-17 21:10,50.630445,-96.9807716666667,4.2,6.8,275,999.02,-21.2,53,0.41,0.0,1029.60,37.7
2019-12-17 21:20,50.6304433333333,-96.9807733333333,4.8,6.9,277,999.15,-21.2,53,0.41,0.0,1029.73,37.7
2019-12-17 21:30,50.630445,-96.9807716666667,4.8,6.4,271,999.12,-21.2,53,0.41,0.0,1029.73,37.7
2019-12-17 21:40,50.630445,-96.9807733333333,4.5,6.0,269,999.24,-21.1,53,0.40,0.0,1029.85,37.7
2019-12-17 21:50,50.630445,-96.9807733333333,3.8,5.7,271,999.24,-21.0,54,0.40,0.0,1029.84,37.7
2019-12-17 22:00,50.630445,-96.9807733333333,2.5,4.0,262,999.30,-21.1,54,0.41,0.0,1029.90,270.0
2019-12-17 22:10,50.6304516666667,-96.9807666666667,2.8,3.7,238,999.36,-21.3,54,0.41,0.0,1029.97,270.0
2019-12-17 22:20,50.6304516666667,-96.9807683333333,1.9,2.9,246,999.39,-21.6,56,0.41,0.0,1030.02,270.0
2019-12-17 22:30,50.6304516666667,-96.9807733333333,2.0,3.3,277,999.36,-21.9,57,0.42,0.0,1030.01,270.0
2019-12-17 22:40,50.6304516666667,-96.9807733333333,2.9,4.0,284,999.36,-22.0,58,0.42,0.0,1030.02,270.0
2019-12-17 22:50,50.63045,-96.9807616666667,2.1,3.3,284,999.32,-22.1,59,0.44,0.0,1029.98,270.0
2019-12-17 23:00,50.6304466666667,-96.980755,1.9,2.5,246,999.42,-22.5,60,0.45,0.0,1030.09,14.5
2019-12-17 23:10,50.63043,-96.9807633333333,1.7,2.1,247,999.51,-22.7,60,0.45,0.0,1030.20,14.5
2019-12-17 23:20,50.6304416666667,-96.9807583333333,0.7,1.8,259,999.47,-22.8,61,0.43,0.0,1030.17,14.5
2019-12-17 23:30,50.6304466666667,-96.9807616666667,0.0,0.0,0,999.38,-22.9,61,0.42,0.0,1030.07,14.5
2019-12-17 23:40,50.630445,-96.9807633333333,0.6,1.6,195,999.18,-23.5,62,0.42,0.0,1029.90,14.5
